Regional Weather Roundup
Issued by NWS Charleston, SC

Home | Current Version | Previous Version | Text Only | Print | Product List | Glossary On
Versions: 1 2 3 4 5 6 7 8 9 10 11 12 13 14 15 16 17 18 19 20 21 22 23 24 25 26 27 28 29 30 31 32 33 34 35 36 37 38 39 40 41 42 43 44 45 46 47 48 49 50
000
ASUS42 KCHS 292226
RWRCHS

REGIONAL WEATHER ROUNDUP
NATIONAL WEATHER SERVICE CHARLESTON SC
600 PM EDT SUN MAR 29 2015

NOTE: "FAIR" INDICATES FEW OR NO CLOUDS BELOW 12,000 FEET WITH NO
SIGNIFICANT WEATHER AND/OR OBSTRUCTIONS TO VISIBILITY.

NOT ALL STATIONS ARE QUALITY CONTROLLED BY THE NATIONAL
WEATHER SERVICE. USE DATA WITH CAUTION...ESPECIALLY
DEWPOINT OBSERVATIONS.

SCZ027-030-031-034>040-042>050-292300-
...SOUTHEAST SOUTH CAROLINA...

CITY           SKY/WX    TMP DP  RH WIND       PRES   REMARKS
N CHARLESTON   MOSUNNY   58  13  17 N6        30.34F
WATERFRONT PRK   N/A     54 N/A N/A SE9         N/A
MOUNT PLEASANT FAIR      54  28  37 CALM      30.35S
PINOPOLIS        N/A     55  14  19 VRB6      30.28R
MONCKS CORNER  FAIR      55  12  18 N5        30.33F
SUMMERVILLE    FAIR      59  18  20 CALM      30.34F
BEAUFORT MCAS  SUNNY     57  34  41 S6        30.34F
BEAUFORT ARPT  FAIR      54  32  43 SE5       30.33F
HILTON HEAD IS SUNNY     54  30  40 SE5       30.36F
WALTERBORO     CLEAR     55  14  19 CALM      30.33S
ALLENDALE      FAIR      57  14  18 E5        30.31S

...SOUTHERN MIDLANDS AND PEE DEE...

CITY           SKY/WX    TMP DP  RH WIND       PRES   REMARKS
GEORGETOWN     NOT AVBL
KINGSTREE      NOT AVBL
ORANGEBURG     SUNNY     56  13  18 SE3       30.32F
BARNWELL       FAIR      59  14  17 S3        30.32S
AIKEN          FAIR      55   9  15 S3        30.33S
MANNING        HVY RAIN  54  12  19 S3        30.33F
COLUMBIA       MOSUNNY   57  11  16 S7        30.30F
SUMTER         SUNNY     57  10  15 S7        30.30F
FLORENCE       SUNNY     54  10  17 W8        30.33F
MYRTLE BEACH   SUNNY     52  27  37 SE13      30.36F
N MYRTLE BEACH SUNNY     49  26  41 S8        30.34F

$$

GAZ063-065-086>088-099>101-113>116-118-119-134>141-150-292300-
...SOUTHEAST GEORGIA...

CITY           SKY/WX    TMP DP  RH WIND       PRES   REMARKS
SAVANNAH ARPT  SUNNY     57  26  30 SE10      30.33S
HUNTER AAF     SUNNY     55  28  35 SE9       30.32S
FORT STEWART   SUNNY     58  29  33 E12       30.31S
STATESBORO     SUNNY     60  23  23 S5        30.32S
SYLVANIA       CLEAR     59  22  23 SW5       30.32S
CLAXTON        FAIR      61  28  29 SE3       30.32S

...CSRA...CENTRAL AND FAR SOUTHEAST GEORGIA...

CITY           SKY/WX    TMP DP  RH WIND       PRES   REMARKS
THOMSON        SUNNY     61  22  22 CALM      30.33F
AUGUSTA-BUSH   SUNNY     59  12  15 SW3       30.30F
AUGUSTA-DANIEL SUNNY     59  12  15 VRB6      30.30F
SWAINSBORO     FAIR     N/A N/A N/A S7        30.31S
VIDALIA        SUNNY     61  28  29 S6        30.31F
EASTMAN        FAIR      64  24  21 SW3       30.32S
HAZLEHURST     FAIR      61  23  23 SW3       30.30F
ALMA           SUNNY     62  23  22 S6        30.32S
WAYCROSS       SUNNY     66  30  25 SW6       30.31S
JESUP          FAIR      63  36  36 SE8       30.33R
BAXLEY         FAIR      63  25  23 SW5       30.31F
BRUNSWICK      SUNNY     55  30  38 E10       30.37S
SAINT SIMONS   SUNNY     54  33  45 E9        30.37R

$$

SCZ027-028-034-036>038-045-046-048>050-GAZ119-141-292300-
...LAKE AND SUPPLEMENTAL COASTAL OBSERVATIONS...

STATION/POSITION TIME  TEMP    WIND        PRES    WAVE   SWELL
                       AIR SEA DIR/SP/G            HT/PER HT/PER/DIR
                 (UTC) (F)     (DEG/KT/KT) (MB)    (FT/S) (FT/S/D)
UPR LAKE MARION  NOT AVBL
WINYAH BAY       2100   47     110/  6     1027.0S
LAKE MURRAY      2100   54     260/  2/  3 1026.1F
ACE BASIN NERRS  NOT AVBL
FORT PULASKI     2200          110/  7/ 10 1028.0F
SAPELO ISLAND    2200   56     110/  6     1028.0S

$$

ANZ835-935-AMZ111-154-330-350-352-354-370-450-454-472-292300-
...C-MAN AND BUOY OBSERVATIONS...

STATION/POSITION TIME  TEMP    WIND        PRES    WAVE   SWELL
                       AIR SEA DIR/SP/G            HT/PER HT/PER/DIR
                 (UTC) (F)     (DEG/KT/KT) (MB)    (FT/S) (FT/S/D)
BUOY 41004       2150   50 68   10/  8/ 10 1027.7S   4/ 6   3/ 6
BUOY 41008       2150   52 61   50/  6/ 10 1028.0R   4/ 6   3/ 50/ 6
FOLLY BEACH CMAN 2200   50     130/  4/  6 1027.9F
CAPERS NEARSHORE NOT AVBL
FRIPP NEARSHORE  2100   51     140/  6/  8 1027.0F


STATION/POSITION TIME  TEMP    WIND        PRES    WAVE   SWELL
                       AIR SEA DIR/SP/G            HT/PER HT/PER/DIR
                 (UTC) (F)     (DEG/KT/KT) (MB)    (FT/S) (FT/S/D)
5E ST. MARYS GA  2121      61                N/A     3/ 6   2/ 90/11
FRYING PAN BUOY  2150   47 65  240/  2/  4 1029.0F   3/ 6   3/ 50/ 6
BUOY 41025       NOT AVBL
CAPE LOOKOUT NC  2200   47     290/  4/  6 1027.0R
BUOY 41002       2150   53 68  340/ 17/ 21 1025.9R   7/ 7
BUOY 41010       2120   63 76   20/ 12/ 16 1025.6F
ST AUGUSTINE FL  2200   56 63   10/  6/  7 1028.1F


$$



USA.gov is the U.S. government's official web portal to all federal, state and local government web resources and services.